SCP
-0 -0 -0 -0 -0 -0 -0 -0 -0 -0 -0 -0 -0 -0 -0 -0 -0 -0 0 0 0 0 0 0 0 0 0 -0 -0 0 0 0 0 0 0 0 0 0 0 0 0 0 0 0 0 0 0
-0 -0 -0 -0 -0 -0 -0 -0 -0 -0 -0 -0 -0 -0 -0 -0 -0 -0 0 0 0 0 0 0 0 0 0 0 0 0 0 0 0 0 0 0 0 0 0 0 0 0 0 0 0 0 0
-0 -0 -0 -0 -0 -0 -0 -0 -0 -0 -0 -0 -0 -0 -0 -0 -0 -0 -0 0 0 0 0 0 0 -0 0 0 0 0 0 0 0 0 0 0 0 0 0 0 0 0 0 0 0 0 0
-0 -0 -0 -0 -0 -0 -0 -0 -0 -0 -0 -0 -0 -0 -0 -0 -0 -0 -0 -0 0 0 0 0 -0 -0 0 0 0 0 0 0 0 0 0 0 0 0 0 0 0 0 0 0 0 0 0
-0 -0 -0 -0 -0 -0 -0 -0 -0 -0 -0 -0 -0 -0 -0 -0 -0 -0 -0 -0 0 0 0 0 -0 0 -0 0 0 0 0 0 0 0 0 0 0 0 0 0 0 0 0 0 0 0 0
-0 -0 -0 -0 -0 -0 -0 -0 -0 -0 -0 -0 -0 -0 -0 -0 -0 -0 -0 0 0 0 0 0 0 0 0 0 0 0 0 0 0 0 0 0 0 0 0 0 0 0 0 0 0 0 0
-0 -0 -0 -0 -0 -0 -0 -0 -0 -0 -0 -0 -0 -0 -0 -0 -0 -0 -0 0 0 0 0 0 0 0 -0 0 0 0 0 0 0 0 0 0 0 0 0 0 0 0 0 0 0 0 0
0 -0 -0 -0 -0 -0 -0 -0 -0 -0 -0 -0 -0 -0 -0 -0 -0 0 0 0 0 0 0 0 0 0 -0 -0 0 0 0 0 0 0 0 0 0 0 0 0 0 0 0 0 0 0 0
0 0 -0 -0 -0 -0 -0 -0 -0 -0 -0 -0 -0 -0 -0 -0 -0 0 0 0 -0 0 0 0 0 0 0 0 0 0 0 0 0 0 0 0 0 0 0 0 0 0 0 0 0 0 0
0 0 -0 -0 -0 -0 -0 -0 -0 -0 -0 -0 -0 -0 -0 -0 0 0 0 0 -0 0 0 0 0 0 0 0 0 0 0 0 0 0 0 0 0 0 0 0 0 0 0 0 0 0 0
0 0 0 -0 -0 -0 -0 -0 -0 -0 -0 -0 -0 -0 -0 0 0 0 0 0 -0 0 0 0 0 0 0 0 0 0 0 0 0 0 0 0 0 0 0 0 0 0 0 0 0 0 0
0 0 0 -0 -0 -0 -0 -0 -0 -0 -0 -0 -0 -0 -0 0 0 0 0 -0 0 0 0 0 0 0 0 0 0 0 0 0 0 0 0 0 0 0 0 0 0 0 0 0 0 0 0
0 0 0 -0 -0 -0 -0 -0 -0 -0 -0 -0 -0 -0 0 0 0 0 -0 0 0 0 0 0 0 0 0 0 0 0 0 0 0 0 0 0 0 0 0 0 0 0 0 0 0 0 0
-0 0 0 -0 -0 -0 -0 -0 -0 -0 -0 -0 -0 0 0 -0 0 0 0 0 0 0 0 0 0 0 0 0 0 0 0 0 0 0 0 0 0 0 0 0 0 0 0 0 0 0 0
0 -0 -0 -0 -0 -0 -0 -0 -0 -0 -0 -0 -0 0 0 0 0 0 0 0 0 0 0 0 0 0 0 0 0 0 0 0 0 0 0 0 0 0 0 0 0 0 0 0 0 0 0
0 -0 -0 -0 -0 -0 -0 -0 -0 -0 -0 -0 0 0 0 0 0 0 0 0 0 0 0 0 0 0 0 0 0 0 0 0 0 0 0 0 0 0 0 0 0 0 0 0 0 0 0
0 0 0 -0 -0 -0 -0 -0 -0 -0 -0 -0 0 0 0 0 0 0 0 0 0 0 0 0 0 0 0 0 0 0 0 0 0 0 0 0 0 0 0 0 0 0 0 0 0 0 0
0 0 0 0 0 -0 -0 -0 -0 -0 -0 0 0 0 0 0 0 0 0 0 0 0 0 0 0 0 0 0 0 0 0 0 0 0 0 0 0 0 0 0 0 0 0 0 0 0 0
0 0 0 0 0 0 -0 -0 -0 -0 -0 0 0 0 0 0 0 0 0 0 0 0 0 0 0 0 0 0 0 0 0 0 0 0 0 0 0 0 0 0 0 0 0 0 0 0 0
0 0 0 0 0 0 0 -0 -0 -0 -0 0 0 0 0 0 0 0 0 0 0 0 0 0 0 0 0 0 0 0 0 0 0 0 0 0 0 0 0 0 0 0 0 0 0 0 0
0 0 0 0 0 0 0 0 -0 -0 -0 0 0 0 0 0 0 0 0 0 0 0 0 0 0 0 0 0 0 0 0 0 0 0 0 0 0 0 0 0 0 0 0 0 0 0 0
0 0 0 0 0 0 0 0 0 -0 0 0 0 0 0 0 0 0 0 0 0 0 0 0 0 0 0 0 0 0 0 0 0 0 0 0 0 0 0 0 0 0 0 0 0 0 0
0 0 0 0 0 0 0 0 0 0 0 0 0 0 0 0 0 0 0 0 0 0 0 0 0 0 0 0 0 0 0 0 0 0 0 0 0 0 0 0 0 0 0 0 0 0 0
0 0 0 0 0 0 0 0 0 0 0 -0 0 0 0 0 0 0 0 0 0 0 0 0 0 0 0 0 0 0 0 0 0 0 0 0 0 0 0 0 0 0 0 0 0 0 0
0 0 0 0 0 0 0 0 0 0 0 0 0 0 0 0 0 0 0 0 0 0 0 0 0 0 0 0 0 0 0 0 0 0 0 0 0 0 0 0 0 0 0 0 0 -0 0
0 0 0 0 0 0 0 0 0 0 0 0 0 0 0 0 0 0 0 0 0 0 0 0 0 0 0 0 0 0 0 0 0 0 0 0 0 0 0 0 0 0 0 0 0 -0 0
0 0 0 0 0 0 0 0 0 0 0 0 0 0 0 0 0 0 0 0 0 0 0 0 0 0 0 0 0 0 0 0 0 0 0 0 0 0 0 0 0 0 0 -0 0 -0 0
0 0 0 0 0 0 0 0 0 0 0 0 0 0 0 0 0 0 0 0 0 0 0 0 0 0 0 0 0 0 0 0 0 0 0 0 0 0 0 0 0 0 -0 0 0 -0 0
0 0 0 0 0 0 0 0 0 0 0 0 0 0 0 0 0 0 0 0 0 0 0 0 0 0 0 0 0 0 0 0 0 0 0 0 0 0 0 0 0 -0 0 0 0 -0 -0
Wind_Speed_500mb
64 62 60 59 57 54 48 42 38 35 32 27 24 23 23 23 22 18 12 15 18 19 16 14 14 16 14 15 15 20 23 26 30 18 31 33 33 16 8 9 15 5 9 34 41 42 36
66 66 63 61 59 56 51 45 39 34 31 26 24 24 25 25 22 16 14 16 17 16 13 11 16 20 14 10 18 16 17 18 23 22 20 25 18 21 4 6 2 11 22 31 29 29 12
65 66 65 62 60 58 54 49 42 33 29 25 23 23 26 25 21 17 15 12 10 9 6 9 14 18 6 9 5 2 9 13 17 18 21 22 25 16 15 15 9 12 14 19 10 8 7
63 64 65 64 61 58 55 51 46 37 26 23 21 21 24 22 20 17 15 10 7 3 5 10 14 21 7 6 3 3 11 15 15 12 18 24 21 21 6 7 14 11 8 9 13 15 7
61 62 63 64 63 60 56 52 48 43 33 22 17 17 18 18 21 20 15 9 4 5 9 15 19 14 8 5 9 4 8 11 12 15 20 21 12 2 4 7 10 12 8 9 17 10 8
60 61 62 62 62 61 57 53 48 44 39 30 16 11 11 11 15 19 17 13 7 12 13 19 15 9 8 16 10 9 6 18 12 20 15 18 6 7 7 9 7 14 7 11 13 13 12
58 61 63 63 62 61 59 56 51 45 40 34 24 8 4 6 9 10 17 7 14 3 26 29 29 31 39 9 14 27 22 18 17 9 4 10 12 4 11 10 15 10 8 15 10 18 6
57 60 63 64 63 61 60 58 54 49 43 37 28 11 2 3 6 7 10 13 13 16 20 29 32 37 36 32 21 29 21 7 9 7 2 12 4 16 9 11 4 8 5 10 10 9 10
56 59 62 64 64 64 62 59 56 52 46 39 30 13 5 9 3 10 17 15 13 24 7 18 6 9 10 13 18 35 14 16 11 7 9 11 16 7 5 7 11 5 2 10 15 9 12
57 59 63 65 66 65 62 60 57 53 47 41 31 16 8 13 7 7 7 11 20 17 8 8 2 7 7 9 8 21 27 24 5 16 7 9 9 1 3 4 3 8 5 10 19 13 10
56 59 62 66 68 67 63 61 61 57 50 41 32 19 6 19 10 2 11 17 12 8 6 6 4 7 25 2 16 38 14 5 9 10 10 19 6 4 3 5 4 11 10 11 19 10 6
56 59 62 66 69 68 65 63 65 62 55 43 32 20 7 13 13 10 20 8 1 9 1 7 7 14 14 21 11 28 22 17 15 4 3 9 9 5 7 4 8 11 9 12 9 5 3
55 58 62 65 68 68 67 66 66 63 59 47 29 18 7 15 8 17 18 2 9 9 8 9 7 9 3 11 10 11 12 14 6 11 9 12 9 5 8 6 7 19 13 9 11 8 9
54 57 60 63 65 67 69 69 67 63 60 46 25 7 8 14 3 16 8 8 8 6 5 4 7 7 6 14 6 15 12 11 7 6 2 2 11 7 6 4 6 4 11 9 10 6 11
51 54 58 61 64 67 69 71 70 67 66 47 17 10 12 5 12 17 7 9 8 2 4 7 8 8 9 10 6 12 10 4 3 3 3 5 8 9 9 5 8 5 1 6 3 4 7
49 52 54 57 62 66 68 69 71 66 66 39 14 12 13 11 18 14 8 2 4 8 1 5 3 2 4 7 9 14 9 5 7 3 5 7 13 8 2 5 4 6 7 1 4 7 9
46 48 50 54 59 64 68 67 67 66 62 31 9 8 10 14 17 8 7 2 5 12 15 5 8 6 5 4 3 4 9 14 11 9 5 5 7 9 4 8 14 5 4 3 5 7 6
42 44 46 51 57 60 66 66 63 66 61 44 12 7 26 13 8 6 3 9 10 7 16 5 5 2 5 4 5 7 13 13 20 2 7 2 6 9 19 21 9 12 15 11 8 11 10
40 41 42 47 55 59 62 64 59 57 59 50 13 9 19 12 7 8 16 11 9 13 8 11 3 3 5 2 7 7 8 14 40 6 7 4 4 8 20 11 3 7 10 11 5 6 20
36 39 41 45 51 57 61 63 60 52 44 37 14 8 13 21 16 6 9 9 12 22 3 12 5 9 7 6 10 11 16 14 10 32 47 11 10 17 20 29 7 23 25 27 11 9 21
34 37 40 44 49 55 60 62 59 51 39 23 14 7 9 8 10 11 3 10 10 14 16 18 10 9 7 8 8 10 7 9 19 37 9 11 15 14 28 37 30 37 41 37 31 37 22
32 34 36 40 45 52 58 59 57 52 42 32 11 11 11 8 17 11 10 8 7 11 7 9 6 14 12 10 13 12 8 8 17 7 7 2 13 7 20 30 29 34 36 45 41 32 29
31 33 34 38 45 49 53 55 55 52 47 22 19 13 7 6 9 5 1 6 9 11 15 7 12 9 10 11 24 46 55 60 42 12 6 8 6 2 10 7 16 17 21 22 8 6 8
29 33 32 39 43 46 47 50 49 48 46 34 28 16 9 7 3 6 11 13 9 14 11 40 39 7 12 53 59 50 50 53 31 23 26 6 5 6 10 11 10 8 7 4 6 17 21
24 28 34 41 45 47 44 42 42 39 35 28 22 14 7 6 11 22 7 13 18 32 13 23 18 31 35 37 8 10 9 12 5 10 11 7 3 6 4 6 29 13 6 5 10 39 4
30 28 31 40 43 43 39 38 38 37 31 24 17 17 9 8 10 5 12 7 5 5 14 14 39 42 19 4 5 5 6 6 7 16 7 17 3 7 4 8 9 9 6 31 3 20 7
35 30 40 37 40 39 35 34 37 36 31 24 17 17 11 12 17 11 9 9 8 2 5 16 21 18 16 7 4 3 7 7 6 9 10 13 9 7 5 7 15 3 36 21 6 14 45
33 39 38 34 33 32 31 31 35 39 35 26 21 15 18 14 53 23 10 15 15 9 6 14 16 4 7 8 1 5 2 5 6 8 12 6 1 4 6 7 15 15 41 5 19 64 42
39 40 35 32 29 29 28 30 33 35 37 34 21 23 27 28 50 68 72 66 69 58 42 13 9 3 8 3 2 4 6 5 6 8 4 7 11 5 11 12 34 77 48 48 55 50 57
Wind_Direction_500mb
38 37 36 35 34 32 32 33 35 34 38 44 49 44 32 22 18 23 56 83 103 111 106 88 44 28 48 66 103 75 58 37 25 32 30 17 21 24 6 342 353 52 323 325 324 323 323
36 35 34 33 33 32 30 30 31 32 33 39 42 38 31 21 27 49 75 98 109 110 98 60 37 28 44 62 101 61 39 26 24 20 10 2 351 355 349 346 71 313 303 299 311 319 315
36 34 32 31 30 30 28 28 27 27 30 34 35 36 30 32 45 68 81 103 114 110 59 28 10 4 356 57 104 35 24 22 6 20 348 341 330 318 317 332 347 315 326 335 3 9 301
35 34 32 30 28 27 26 24 24 23 22 24 27 30 32 43 54 70 71 78 98 100 1 352 338 335 302 250 312 4 358 357 29 24 336 333 325 278 240 288 351 360 47 4 294 330 320
33 32 30 28 27 24 22 22 19 19 18 12 11 23 32 52 69 64 52 36 349 295 311 319 315 329 297 289 246 282 13 9 12 353 350 357 347 299 29 60 2 2 261 277 312 283 312
30 29 27 25 23 22 20 19 17 14 13 11 356 2 29 60 76 59 44 28 307 262 284 306 296 299 240 336 249 280 274 309 297 309 333 352 15 67 43 68 292 276 265 256 255 283 215
26 24 23 22 21 18 16 15 14 11 10 6 0 336 9 85 102 67 46 32 22 27 307 275 265 270 279 288 273 269 290 300 237 273 22 355 47 295 248 211 227 254 230 248 267 262 281
22 21 19 17 16 15 14 11 9 9 5 5 1 341 270 159 128 48 25 43 41 336 303 294 270 265 263 273 292 306 273 212 183 242 89 14 268 237 249 278 262 284 286 314 304 355 318
18 16 16 13 11 10 9 9 5 4 2 359 1 353 191 162 119 84 68 60 2 341 315 303 337 272 286 247 247 283 261 216 182 200 228 163 245 304 314 2 23 330 116 294 271 302 262
14 12 11 8 6 6 5 6 4 -0 359 354 353 354 205 188 161 140 16 6 344 344 55 288 31 24 355 253 284 316 289 238 195 207 235 219 288 277 341 131 98 316 285 320 307 326 280
10 8 7 5 3 2 3 2 2 357 355 352 342 338 246 205 188 205 321 309 323 307 40 310 33 31 3 69 16 6 10 281 219 227 107 244 280 297 159 218 220 238 329 265 287 255 334
7 5 4 3 2 1 0 0 0 354 351 350 333 327 267 209 193 277 310 309 359 47 254 344 35 3 18 3 11 4 11 18 317 349 342 256 288 83 180 275 111 266 340 349 44 86 3
4 3 3 3 3 2 0 359 -0 355 348 348 333 323 274 198 211 297 316 217 45 112 343 355 337 351 124 343 12 24 349 3 25 2 344 329 312 103 35 4 354 37 41 332 346 360 233
3 1 2 4 5 4 1 358 1 360 351 352 345 3 125 137 250 320 340 56 83 55 356 22 334 341 73 18 18 352 8 354 7 91 162 128 315 332 353 151 272 281 149 161 258 235 268
1 -0 3 3 4 4 3 358 359 5 358 360 13 111 123 99 343 334 338 61 181 243 276 347 328 53 344 14 351 12 330 259 162 49 63 316 260 277 304 148 119 274 167 189 200 248 274
360 359 1 2 3 4 3 0 357 6 6 8 66 83 81 5 340 325 66 149 134 343 117 78 93 339 298 311 22 5 328 289 337 174 160 249 288 252 237 13 14 138 180 39 15 288 255
356 358 357 360 1 1 1 3 358 3 9 15 33 76 6 337 322 330 107 217 312 20 352 189 212 245 232 279 223 259 259 299 35 305 318 120 140 271 260 215 223 319 311 131 136 218 279
352 355 356 359 1 0 2 3 2 2 7 21 27 55 9 334 24 20 40 321 318 340 346 296 111 139 232 273 261 248 231 217 358 60 324 276 187 256 249 259 261 183 204 175 129 264 230
347 351 354 356 360 0 1 2 3 4 5 6 9 346 13 29 58 345 327 319 336 348 5 26 54 73 350 266 333 238 259 286 311 11 323 234 295 333 313 352 7 188 194 208 177 162 240
340 345 349 353 357 357 359 359 3 3 6 4 5 9 18 62 75 85 353 314 333 347 61 357 323 47 344 260 223 273 285 293 305 301 293 220 200 195 253 262 230 272 262 269 233 240 273
337 342 347 350 357 357 358 0 2 7 10 10 33 60 17 324 353 352 326 357 350 0 337 13 3 30 307 279 268 247 279 296 281 283 282 161 234 198 251 261 271 268 277 276 257 256 256
333 337 344 349 354 358 357 1 5 10 19 39 39 11 347 309 320 342 5 13 341 329 268 302 23 317 294 246 231 281 263 250 247 294 226 203 275 233 277 268 257 262 268 267 271 271 261
329 330 334 347 352 356 356 359 4 9 19 39 28 360 333 334 352 33 211 319 321 2 299 320 327 298 273 269 305 294 283 270 260 282 232 208 221 51 263 331 319 286 255 257 262 270 197
324 326 341 343 346 352 352 355 3 7 14 21 15 5 358 293 309 246 317 300 293 317 261 293 305 272 302 313 299 283 272 270 276 276 200 167 181 174 282 326 263 248 37 350 275 272 270
316 326 329 332 336 340 342 350 356 4 6 8 2 7 352 284 269 293 296 293 303 313 284 288 303 307 314 317 319 339 330 352 25 73 134 198 164 314 247 246 283 291 45 320 285 299 300
300 298 312 316 323 321 329 342 349 354 1 354 340 339 325 297 246 263 296 285 278 311 323 272 310 328 328 10 14 306 281 276 312 333 154 10 213 189 262 245 279 237 318 313 233 286 149
298 298 309 311 315 316 318 334 340 345 354 355 326 329 320 280 277 248 259 282 277 184 254 297 337 323 2 17 357 262 278 314 303 307 321 313 316 281 285 270 281 73 348 337 32 305 312
285 296 301 303 305 305 311 328 334 336 341 347 328 310 309 273 292 269 224 214 231 200 162 318 336 285 352 32 28 294 264 293 287 248 277 252 215 296 331 279 284 351 347 341 292 303 308
279 289 286 291 293 296 308 321 327 329 330 332 338 316 303 278 279 288 285 276 272 272 263 249 241 293 253 100 263 255 274 266 206 286 312 276 199 209 213 238 283 297 291 296 308 300 309
Wind_Speed_850mb
64 62 60 59 57 54 48 42 38 35 32 27 24 23 23 23 22 18 12 15 18 19 16 14 14 16 14 15 15 20 23 26 30 18 31 33 33 16 8 9 15 5 9 34 41 42 36
66 66 63 61 59 56 51 45 39 34 31 26 24 24 25 25 22 16 14 16 17 16 13 11 16 20 14 10 18 16 17 18 23 22 20 25 18 21 4 6 2 11 22 31 29 29 12
65 66 65 62 60 58 54 49 42 33 29 25 23 23 26 25 21 17 15 12 10 9 6 9 14 18 6 9 5 2 9 13 17 18 21 22 25 16 15 15 9 12 14 19 10 8 7
63 64 65 64 61 58 55 51 46 37 26 23 21 21 24 22 20 17 15 10 7 3 5 10 14 21 7 6 3 3 11 15 15 12 18 24 21 21 6 7 14 11 8 9 13 15 7
61 62 63 64 63 60 56 52 48 43 33 22 17 17 18 18 21 20 15 9 4 5 9 15 19 14 8 5 9 4 8 11 12 15 20 21 12 2 4 7 10 12 8 9 17 10 8
60 61 62 62 62 61 57 53 48 44 39 30 16 11 11 11 15 19 17 13 7 12 13 19 15 9 8 16 10 9 6 18 12 20 15 18 6 7 7 9 7 14 7 11 13 13 12
58 61 63 63 62 61 59 56 51 45 40 34 24 8 4 6 9 10 17 7 14 3 26 29 29 31 39 9 14 27 22 18 17 9 4 10 12 4 11 10 15 10 8 15 10 18 6
57 60 63 64 63 61 60 58 54 49 43 37 28 11 2 3 6 7 10 13 13 16 20 29 32 37 36 32 21 29 21 7 9 7 2 12 4 16 9 11 4 8 5 10 10 9 10
56 59 62 64 64 64 62 59 56 52 46 39 30 13 5 9 3 10 17 15 13 24 7 18 6 9 10 13 18 35 14 16 11 7 9 11 16 7 5 7 11 5 2 10 15 9 12
57 59 63 65 66 65 62 60 57 53 47 41 31 16 8 13 7 7 7 11 20 17 8 8 2 7 7 9 8 21 27 24 5 16 7 9 9 1 3 4 3 8 5 10 19 13 10
56 59 62 66 68 67 63 61 61 57 50 41 32 19 6 19 10 2 11 17 12 8 6 6 4 7 25 2 16 38 14 5 9 10 10 19 6 4 3 5 4 11 10 11 19 10 6
56 59 62 66 69 68 65 63 65 62 55 43 32 20 7 13 13 10 20 8 1 9 1 7 7 14 14 21 11 28 22 17 15 4 3 9 9 5 7 4 8 11 9 12 9 5 3
55 58 62 65 68 68 67 66 66 63 59 47 29 18 7 15 8 17 18 2 9 9 8 9 7 9 3 11 10 11 12 14 6 11 9 12 9 5 8 6 7 19 13 9 11 8 9
54 57 60 63 65 67 69 69 67 63 60 46 25 7 8 14 3 16 8 8 8 6 5 4 7 7 6 14 6 15 12 11 7 6 2 2 11 7 6 4 6 4 11 9 10 6 11
51 54 58 61 64 67 69 71 70 67 66 47 17 10 12 5 12 17 7 9 8 2 4 7 8 8 9 10 6 12 10 4 3 3 3 5 8 9 9 5 8 5 1 6 3 4 7
49 52 54 57 62 66 68 69 71 66 66 39 14 12 13 11 18 14 8 2 4 8 1 5 3 2 4 7 9 14 9 5 7 3 5 7 13 8 2 5 4 6 7 1 4 7 9
46 48 50 54 59 64 68 67 67 66 62 31 9 8 10 14 17 8 7 2 5 12 15 5 8 6 5 4 3 4 9 14 11 9 5 5 7 9 4 8 14 5 4 3 5 7 6
42 44 46 51 57 60 66 66 63 66 61 44 12 7 26 13 8 6 3 9 10 7 16 5 5 2 5 4 5 7 13 13 20 2 7 2 6 9 19 21 9 12 15 11 8 11 10
40 41 42 47 55 59 62 64 59 57 59 50 13 9 19 12 7 8 16 11 9 13 8 11 3 3 5 2 7 7 8 14 40 6 7 4 4 8 20 11 3 7 10 11 5 6 20
36 39 41 45 51 57 61 63 60 52 44 37 14 8 13 21 16 6 9 9 12 22 3 12 5 9 7 6 10 11 16 14 10 32 47 11 10 17 20 29 7 23 25 27 11 9 21
34 37 40 44 49 55 60 62 59 51 39 23 14 7 9 8 10 11 3 10 10 14 16 18 10 9 7 8 8 10 7 9 19 37 9 11 15 14 28 37 30 37 41 37 31 37 22
32 34 36 40 45 52 58 59 57 52 42 32 11 11 11 8 17 11 10 8 7 11 7 9 6 14 12 10 13 12 8 8 17 7 7 2 13 7 20 30 29 34 36 45 41 32 29
31 33 34 38 45 49 53 55 55 52 47 22 19 13 7 6 9 5 1 6 9 11 15 7 12 9 10 11 24 46 55 60 42 12 6 8 6 2 10 7 16 17 21 22 8 6 8
29 33 32 39 43 46 47 50 49 48 46 34 28 16 9 7 3 6 11 13 9 14 11 40 39 7 12 53 59 50 50 53 31 23 26 6 5 6 10 11 10 8 7 4 6 17 21
24 28 34 41 45 47 44 42 42 39 35 28 22 14 7 6 11 22 7 13 18 32 13 23 18 31 35 37 8 10 9 12 5 10 11 7 3 6 4 6 29 13 6 5 10 39 4
30 28 31 40 43 43 39 38 38 37 31 24 17 17 9 8 10 5 12 7 5 5 14 14 39 42 19 4 5 5 6 6 7 16 7 17 3 7 4 8 9 9 6 31 3 20 7
35 30 40 37 40 39 35 34 37 36 31 24 17 17 11 12 17 11 9 9 8 2 5 16 21 18 16 7 4 3 7 7 6 9 10 13 9 7 5 7 15 3 36 21 6 14 45
33 39 38 34 33 32 31 31 35 39 35 26 21 15 18 14 53 23 10 15 15 9 6 14 16 4 7 8 1 5 2 5 6 8 12 6 1 4 6 7 15 15 41 5 19 64 42
39 40 35 32 29 29 28 30 33 35 37 34 21 23 27 28 50 68 72 66 69 58 42 13 9 3 8 3 2 4 6 5 6 8 4 7 11 5 11 12 34 77 48 48 55 50 57
Wind_Direction_850mb
38 37 36 35 34 32 32 33 35 34 38 44 49 44 32 22 18 23 56 83 103 111 106 88 44 28 48 66 103 75 58 37 25 32 30 17 21 24 6 342 353 52 323 325 324 323 323
36 35 34 33 33 32 30 30 31 32 33 39 42 38 31 21 27 49 75 98 109 110 98 60 37 28 44 62 101 61 39 26 24 20 10 2 351 355 349 346 71 313 303 299 311 319 315
36 34 32 31 30 30 28 28 27 27 30 34 35 36 30 32 45 68 81 103 114 110 59 28 10 4 356 57 104 35 24 22 6 20 348 341 330 318 317 332 347 315 326 335 3 9 301
35 34 32 30 28 27 26 24 24 23 22 24 27 30 32 43 54 70 71 78 98 100 1 352 338 335 302 250 312 4 358 357 29 24 336 333 325 278 240 288 351 360 47 4 294 330 320
33 32 30 28 27 24 22 22 19 19 18 12 11 23 32 52 69 64 52 36 349 295 311 319 315 329 297 289 246 282 13 9 12 353 350 357 347 299 29 60 2 2 261 277 312 283 312
30 29 27 25 23 22 20 19 17 14 13 11 356 2 29 60 76 59 44 28 307 262 284 306 296 299 240 336 249 280 274 309 297 309 333 352 15 67 43 68 292 276 265 256 255 283 215
26 24 23 22 21 18 16 15 14 11 10 6 0 336 9 85 102 67 46 32 22 27 307 275 265 270 279 288 273 269 290 300 237 273 22 355 47 295 248 211 227 254 230 248 267 262 281
22 21 19 17 16 15 14 11 9 9 5 5 1 341 270 159 128 48 25 43 41 336 303 294 270 265 263 273 292 306 273 212 183 242 89 14 268 237 249 278 262 284 286 314 304 355 318
18 16 16 13 11 10 9 9 5 4 2 359 1 353 191 162 119 84 68 60 2 341 315 303 337 272 286 247 247 283 261 216 182 200 228 163 245 304 314 2 23 330 116 294 271 302 262
14 12 11 8 6 6 5 6 4 -0 359 354 353 354 205 188 161 140 16 6 344 344 55 288 31 24 355 253 284 316 289 238 195 207 235 219 288 277 341 131 98 316 285 320 307 326 280
10 8 7 5 3 2 3 2 2 357 355 352 342 338 246 205 188 205 321 309 323 307 40 310 33 31 3 69 16 6 10 281 219 227 107 244 280 297 159 218 220 238 329 265 287 255 334
7 5 4 3 2 1 0 0 0 354 351 350 333 327 267 209 193 277 310 309 359 47 254 344 35 3 18 3 11 4 11 18 317 349 342 256 288 83 180 275 111 266 340 349 44 86 3
4 3 3 3 3 2 0 359 -0 355 348 348 333 323 274 198 211 297 316 217 45 112 343 355 337 351 124 343 12 24 349 3 25 2 344 329 312 103 35 4 354 37 41 332 346 360 233
3 1 2 4 5 4 1 358 1 360 351 352 345 3 125 137 250 320 340 56 83 55 356 22 334 341 73 18 18 352 8 354 7 91 162 128 315 332 353 151 272 281 149 161 258 235 268
1 -0 3 3 4 4 3 358 359 5 358 360 13 111 123 99 343 334 338 61 181 243 276 347 328 53 344 14 351 12 330 259 162 49 63 316 260 277 304 148 119 274 167 189 200 248 274
360 359 1 2 3 4 3 0 357 6 6 8 66 83 81 5 340 325 66 149 134 343 117 78 93 339 298 311 22 5 328 289 337 174 160 249 288 252 237 13 14 138 180 39 15 288 255
356 358 357 360 1 1 1 3 358 3 9 15 33 76 6 337 322 330 107 217 312 20 352 189 212 245 232 279 223 259 259 299 35 305 318 120 140 271 260 215 223 319 311 131 136 218 279
352 355 356 359 1 0 2 3 2 2 7 21 27 55 9 334 24 20 40 321 318 340 346 296 111 139 232 273 261 248 231 217 358 60 324 276 187 256 249 259 261 183 204 175 129 264 230
347 351 354 356 360 0 1 2 3 4 5 6 9 346 13 29 58 345 327 319 336 348 5 26 54 73 350 266 333 238 259 286 311 11 323 234 295 333 313 352 7 188 194 208 177 162 240
340 345 349 353 357 357 359 359 3 3 6 4 5 9 18 62 75 85 353 314 333 347 61 357 323 47 344 260 223 273 285 293 305 301 293 220 200 195 253 262 230 272 262 269 233 240 273
337 342 347 350 357 357 358 0 2 7 10 10 33 60 17 324 353 352 326 357 350 0 337 13 3 30 307 279 268 247 279 296 281 283 282 161 234 198 251 261 271 268 277 276 257 256 256
333 337 344 349 354 358 357 1 5 10 19 39 39 11 347 309 320 342 5 13 341 329 268 302 23 317 294 246 231 281 263 250 247 294 226 203 275 233 277 268 257 262 268 267 271 271 261
329 330 334 347 352 356 356 359 4 9 19 39 28 360 333 334 352 33 211 319 321 2 299 320 327 298 273 269 305 294 283 270 260 282 232 208 221 51 263 331 319 286 255 257 262 270 197
324 326 341 343 346 352 352 355 3 7 14 21 15 5 358 293 309 246 317 300 293 317 261 293 305 272 302 313 299 283 272 270 276 276 200 167 181 174 282 326 263 248 37 350 275 272 270
316 326 329 332 336 340 342 350 356 4 6 8 2 7 352 284 269 293 296 293 303 313 284 288 303 307 314 317 319 339 330 352 25 73 134 198 164 314 247 246 283 291 45 320 285 299 300
300 298 312 316 323 321 329 342 349 354 1 354 340 339 325 297 246 263 296 285 278 311 323 272 310 328 328 10 14 306 281 276 312 333 154 10 213 189 262 245 279 237 318 313 233 286 149
298 298 309 311 315 316 318 334 340 345 354 355 326 329 320 280 277 248 259 282 277 184 254 297 337 323 2 17 357 262 278 314 303 307 321 313 316 281 285 270 281 73 348 337 32 305 312
285 296 301 303 305 305 311 328 334 336 341 347 328 310 309 273 292 269 224 214 231 200 162 318 336 285 352 32 28 294 264 293 287 248 277 252 215 296 331 279 284 351 347 341 292 303 308
279 289 286 291 293 296 308 321 327 329 330 332 338 316 303 278 279 288 285 276 272 272 263 249 241 293 253 100 263 255 274 266 206 286 312 276 199 209 213 238 283 297 291 296 308 300 309